YAOGAN 9A

导读 | 豆包AI

YAOGAN 9A(遥感九号A)是中国研制的遥感卫星,于北京时间2010年3月5日在酒泉卫星发射中心,由长征四号丙运载火箭发射入轨,属于中国遥感卫星系列。该卫星主要服务于科学试验研究、国土资源普查、农作物估产以及防灾减灾等领域,可为国民经济建设提供空间遥感信息支撑,也推动了我国空间遥感技术的应用发展。

基本信息
目录编号:
36413
目录名称:
YAOGAN 9A
国际标识:
2010-009A
轨道中心:
EARTH
卫星名称:
YAOGAN 9A
卫星全名:
--
卫星状态:
在轨 (已飞行5875 天)
发射日期:
2010-03-05 UTC
国别 :
中国 (CN)
星等 :
--
轨道信息
数据来源 国际轨道数据 AOE轨道数据
星历时间 2026-04-05T20:34:06+0800
4小时前
查看轨道信息
2026-04-03T05:00:00+0800
2天前
查看轨道信息
半长轴 7466.31km 7466.315km
偏心率 0.0531459 0.0531249
轨道倾角 63.365° 63.366°
近地点辐角 21.143° 21.140°
升交点赤经 186.242° 193.094°
平近点角 341.069° 109.617°
近地点 691.369km 691.53km
远地点 1484.977km 1484.826km
周期 107.009分钟 107.009分钟
每日圈数 13.456861 13.456847
详细信息
使用方式:
暂无
2D轨道图
3D轨道图
轨道高度分析图
轨道倾角分析图
轨道综合分析图
查看轨道综合分析图